sat.trackr.live / text

‹ back to catalog

STARLINK-36979

NORAD 67996 · 2026-039L

PAYLOAD ACTIVE UNKNOWN

§ Identity

Operator
Country
US
Launch date
2026-02-27
Launch site
AFETR
Launch vehicle
Mass (kg)
RCS (m²)

Purposes: comms

External: N2YO · Heavens-Above · Gunter

§ Orbital elements

Epoch: 2026-09-19T14:57:08.079552Z

Period
94.27 min
Inclination
43.0059°
Eccentricity
0.0001854
Mean motion
15.27586004 rev/d
Perigee alt
481.8 km
Apogee alt
484.3 km
Semi-major
6,861.2 km
B*
1.6221e-4
RAAN
33.6389°
Arg perigee
274.0423°
Mean anomaly
86.0217°
Rev number
3,136

§ Raw data

STARLINK-369791 67996U 26039L   26262.62301018  .00004205  00000+0  16221-3 0  99912 67996  43.0059  33.6389 0001854 274.0423  86.0217 15.27586004 31367

JSON: /api/v1/satellites/67996 · /tle

For live sub-satellite position, see the globe view (requires WebGL).

§ Visibility from observer

Set your observer location to see the next 7 days of passes ≥ 10°. The values pass through the URL so the page stays shareable.

No JS? Fill the form by hand. The geolocation button needs JavaScript.